{"data":{"norad_id":56915,"epoch":"2026-09-20T02:47:41.713728Z","epoch_age_seconds":151265,"freshness":"FRESH","line1":"1 56915U 23083AR  26263.11645502 -.00000347  00000+0 -31035-5 0  9997","line2":"2 56915  43.0021  52.6220 0001034 267.1962  92.8771 15.27574528181534","mean_motion":15.27574528,"eccentricity":0.0001034,"inclination_deg":43.0021,"raan_deg":52.622,"arg_perigee_deg":267.1962,"mean_anomaly_deg":92.8771,"bstar":-3.1035e-6,"rev_number":18153,"period_min":94.267086391218,"perigee_km":482.35603288855,"apogee_km":483.77492956166,"semimajor_km":6861.2024812251,"source":"CELESTRAK","updated_at":"2026-09-21T09:00:33.528005Z"}}